Starlink 35551

operational
NORAD ID: 66200 Int'l Des: 2025-243 Owner: SPXS Country: US Constellation: starlink
LEOCIRCULAR

Über Starlink 35551

Beschreibung wird geladen...

Live-Position

3D-Globus wird geladen...

Nächste Überflüge

Höhenverlauf

Altitude vs Time

uPlot chart will show altitude changes over time

Zweizeiliger Elementsatz

1 66200U 25243Z 25351.90556000 .00020847 00000-0 71397-3 0 9992
2 66200 53.1599 265.0246 0001466 109.2689 250.8471 15.30202528 8132
Epoch: 17. Dez. 2025 • Age: 9 hours

Aktueller Status

Höhe 482.8 km
Geschwindigkeit 7.62 km/s
Subsatellitenpunkt -25.40°S, 80.49°W
Startdatum 26. Okt. 2025
Alter 0.1 years
Typ internet

Technische Details

Klassifizierung Payload
Masse 575.00 kg
Trockenmasse 530.00 kg
Gesamtmasse 575.00 kg
Länge 0.30 m
Durchmesser 4.10 m
Spannweite 29.00 m
Form Box + pan
Hersteller SPXS
Bus-Typ Starlink V2MO
Phasenstatus In Orbit
Besitzer/Staat SPXS/US

Große Konstellationen

Loading constellations...